Time,TemperatureF,DewpointF,PressureIn,WindDirection,WindDirectionDegrees,WindSpeedMPH,WindSpeedGustMPH,Humidity,HourlyPrecipIn,Conditions,Clouds,dailyrainin,SoftwareType,DateUTC
2013-01-11 05:15:00,36.4,34.2,29.79,WNW,293,0.0,0.0,92,0.00,,,0.00,WUHU216HW,2013-01-11 13:15:00,
2013-01-11 05:20:00,36.4,34.2,29.79,WNW,293,0.0,0.0,92,0.00,,,0.00,WUHU216HW,2013-01-11 13:20:00,
2013-01-11 06:00:00,32.4,30.6,29.82,WNW,293,0.0,0.0,93,0.00,,,0.00,WUHU216HW,2013-01-11 14:00:00,
2013-01-11 06:05:00,32.4,30.6,29.82,WNW,293,0.0,0.0,93,0.00,,,0.01,WUHU216HW,2013-01-11 14:05:00,
2013-01-11 06:10:00,32.4,30.6,29.83,WNW,293,0.0,0.0,93,0.00,,,0.01,WUHU216HW,2013-01-11 14:10:00,
2013-01-11 06:15:00,32.4,30.6,29.83,WNW,293,0.0,0.0,93,0.00,,,0.01,WUHU216HW,2013-01-11 14:15:00,
2013-01-11 06:20:00,32.4,30.6,29.83,WNW,293,0.0,0.0,93,0.00,,,0.01,WUHU216HW,2013-01-11 14:20:00,
2013-01-11 06:25:00,32.4,30.6,29.83,WNW,293,0.0,0.0,93,0.00,,,0.01,WUHU216HW,2013-01-11 14:25:00,
2013-01-11 06:30:00,32.2,30.4,29.83,WNW,293,0.0,0.0,93,0.00,,,0.01,WUHU216HW,2013-01-11 14:30:00,
2013-01-11 06:35:00,32.2,30.4,29.83,WNW,293,0.0,0.0,93,0.00,,,0.01,WUHU216HW,2013-01-11 14:35:00,
2013-01-11 06:40:00,32.2,30.4,29.84,WNW,293,0.0,0.2,93,0.00,,,0.01,WUHU216HW,2013-01-11 14:40:00,
2013-01-11 06:45:00,32.0,30.2,29.84,WNW,293,0.0,0.2,93,0.00,,,0.01,WUHU216HW,2013-01-11 14:45:00,
2013-01-11 06:50:00,32.0,30.2,29.84,WNW,293,0.0,0.2,93,0.00,,,0.01,WUHU216HW,2013-01-11 14:50:00,
2013-01-11 06:55:00,31.9,30.1,29.84,WNW,293,0.0,0.2,93,0.00,,,0.01,WUHU216HW,2013-01-11 14:55:00,
2013-01-11 07:00:00,31.9,30.1,29.84,WNW,293,0.0,0.2,93,0.00,,,0.01,WUHU216HW,2013-01-11 15:00:00,
2013-01-11 07:05:00,31.7,29.9,29.84,WNW,293,0.0,0.2,93,0.00,,,0.01,WUHU216HW,2013-01-11 15:05:00,
2013-01-11 07:10:00,31.9,30.1,29.85,WNW,293,0.0,0.0,93,0.00,,,0.01,WUHU216HW,2013-01-11 15:10:00,
2013-01-11 07:15:00,31.9,30.1,29.85,WNW,293,0.0,0.0,93,0.00,,,0.01,WUHU216HW,2013-01-11 15:15:00,
2013-01-11 07:20:00,31.9,30.1,29.85,WNW,293,0.0,0.0,93,0.00,,,0.01,WUHU216HW,2013-01-11 15:20:00,
2013-01-11 07:25:00,31.7,29.9,29.86,WNW,293,0.0,0.0,93,0.00,,,0.01,WUHU216HW,2013-01-11 15:25:00,
2013-01-11 07:30:00,31.7,29.9,29.86,WNW,293,0.0,0.0,93,0.00,,,0.01,WUHU216HW,2013-01-11 15:30:00,
2013-01-11 07:35:00,31.7,29.9,29.86,WNW,293,0.0,0.0,93,0.00,,,0.01,WUHU216HW,2013-01-11 15:35:00,
2013-01-11 07:40:00,31.7,29.9,29.86,WNW,293,0.0,0.0,93,0.00,,,0.01,WUHU216HW,2013-01-11 15:40:00,
2013-01-11 07:45:00,31.7,29.9,29.87,WNW,293,0.0,0.0,93,0.00,,,0.01,WUHU216HW,2013-01-11 15:45:00,
2013-01-11 07:50:00,31.7,29.9,29.87,WNW,293,0.0,0.0,93,0.00,,,0.01,WUHU216HW,2013-01-11 15:50:00,
2013-01-11 07:55:00,31.3,29.5,29.87,WNW,293,0.0,0.2,93,0.00,,,0.01,WUHU216HW,2013-01-11 15:55:00,
2013-01-11 08:00:00,31.1,29.6,29.87,WNW,293,0.0,0.2,94,0.00,,,0.01,WUHU216HW,2013-01-11 16:00:00,
2013-01-11 08:05:00,31.1,29.6,29.87,WNW,293,0.0,0.0,94,0.00,,,0.01,WUHU216HW,2013-01-11 16:05:00,
2013-01-11 08:10:00,31.3,29.8,29.88,WNW,293,0.0,0.2,94,0.00,,,0.01,WUHU216HW,2013-01-11 16:10:00,
2013-01-11 08:15:00,31.3,29.8,29.88,WNW,293,0.0,0.2,94,0.00,,,0.01,WUHU216HW,2013-01-11 16:15:00,
2013-01-11 08:20:00,31.3,29.8,29.89,WNW,293,0.0,0.0,94,0.00,,,0.01,WUHU216HW,2013-01-11 16:20:00,
2013-01-11 08:25:00,31.0,29.4,29.88,WNW,293,0.0,0.0,94,0.00,,,0.01,WUHU216HW,2013-01-11 16:25:00,
2013-01-11 08:30:00,31.0,29.4,29.89,WNW,293,0.0,0.0,94,0.00,,,0.01,WUHU216HW,2013-01-11 16:30:00,
2013-01-11 08:35:00,31.0,29.4,29.89,WNW,293,0.0,0.0,94,0.00,,,0.01,WUHU216HW,2013-01-11 16:35:00,
2013-01-11 08:40:00,31.1,29.6,29.89,WNW,293,0.0,0.0,94,0.00,,,0.01,WUHU216HW,2013-01-11 16:40:00,
2013-01-11 08:45:00,31.3,29.8,29.90,WNW,293,0.0,0.0,94,0.00,,,0.01,WUHU216HW,2013-01-11 16:45:00,
2013-01-11 08:50:00,31.3,29.8,29.90,WNW,293,0.0,0.2,94,0.00,,,0.01,WUHU216HW,2013-01-11 16:50:00,
2013-01-11 08:55:00,31.7,30.2,29.90,WNW,293,0.0,0.2,94,0.00,,,0.01,WUHU216HW,2013-01-11 16:55:00,
2013-01-11 09:00:00,32.0,30.5,29.90,WNW,293,0.0,0.0,94,0.00,,,0.01,WUHU216HW,2013-01-11 17:00:00,
2013-01-11 09:05:00,32.0,30.5,29.91,WNW,293,0.0,0.2,94,0.00,,,0.01,WUHU216HW,2013-01-11 17:05:00,
2013-01-11 09:10:00,32.4,30.9,29.91,WNW,293,0.0,0.2,94,0.00,,,0.01,WUHU216HW,2013-01-11 17:10:00,
2013-01-11 09:15:00,32.6,31.1,29.91,WNW,293,0.0,0.4,94,0.00,,,0.01,WUHU216HW,2013-01-11 17:15:00,
2013-01-11 09:20:00,32.8,31.2,29.91,WNW,293,0.0,0.4,94,0.00,,,0.01,WUHU216HW,2013-01-11 17:20:00,
2013-01-11 09:25:00,33.1,31.8,29.91,WNW,293,0.0,0.0,95,0.00,,,0.01,WUHU216HW,2013-01-11 17:25:00,
2013-01-11 09:30:00,33.5,32.1,29.91,WNW,293,0.0,0.0,95,0.00,,,0.01,WUHU216HW,2013-01-11 17:30:00,
2013-01-11 09:35:00,33.7,32.3,29.91,WNW,293,0.0,0.0,95,0.00,,,0.01,WUHU216HW,2013-01-11 17:35:00,
2013-01-11 09:40:00,34.0,32.7,29.91,WNW,293,0.0,0.0,95,0.00,,,0.01,WUHU216HW,2013-01-11 17:40:00,
2013-01-11 09:45:00,34.0,32.7,29.91,WNW,293,0.0,0.0,95,0.00,,,0.01,WUHU216HW,2013-01-11 17:45:00,
2013-01-11 09:50:00,34.2,32.9,29.92,WNW,293,0.0,0.0,95,0.00,,,0.01,WUHU216HW,2013-01-11 17:50:00,
2013-01-11 09:55:00,34.6,33.2,29.92,WNW,293,0.0,0.4,95,0.00,,,0.01,WUHU216HW,2013-01-11 17:55:00,
2013-01-11 10:00:00,34.6,32.9,29.92,WNW,293,0.0,0.4,94,0.00,,,0.01,WUHU216HW,2013-01-11 18:00:00,
2013-01-11 10:05:00,34.7,33.1,29.93,WNW,293,0.0,0.0,94,0.00,,,0.01,WUHU216HW,2013-01-11 18:05:00,
2013-01-11 10:10:00,34.9,33.6,29.93,WNW,293,0.0,0.0,95,0.00,,,0.01,WUHU216HW,2013-01-11 18:10:00,
2013-01-11 10:15:00,34.6,33.2,29.93,NW,315,0.0,0.4,95,0.00,,,0.01,WUHU216HW,2013-01-11 18:15:00,
2013-01-11 10:20:00,34.6,33.2,29.93,NW,315,0.0,0.4,95,0.00,,,0.01,WUHU216HW,2013-01-11 18:20:00,
2013-01-11 10:25:00,34.4,33.0,29.93,West,270,0.0,0.9,95,0.00,,,0.01,WUHU216HW,2013-01-11 18:25:00,
2013-01-11 10:30:00,34.2,32.9,29.93,West,270,1.1,1.1,95,0.00,,,0.01,WUHU216HW,2013-01-11 18:30:00,
2013-01-11 10:35:00,34.2,32.9,29.94,West,270,0.0,1.1,95,0.00,,,0.01,WUHU216HW,2013-01-11 18:35:00,
2013-01-11 10:40:00,34.0,32.7,29.94,West,270,0.0,1.1,95,0.00,,,0.01,WUHU216HW,2013-01-11 18:40:00,
2013-01-11 10:45:00,34.2,32.9,29.94,West,270,0.0,0.4,95,0.00,,,0.01,WUHU216HW,2013-01-11 18:45:00,
2013-01-11 10:50:00,34.2,32.9,29.94,NW,315,0.0,0.7,95,0.00,,,0.01,WUHU216HW,2013-01-11 18:50:00,
2013-01-11 10:55:00,34.4,33.0,29.94,West,270,0.0,0.9,95,0.00,,,0.01,WUHU216HW,2013-01-11 18:55:00,
2013-01-11 11:00:00,34.6,32.9,29.94,NNE,23,0.0,0.9,94,0.00,,,0.01,WUHU216HW,2013-01-11 19:00:00,
2013-01-11 11:05:00,34.9,33.3,29.94,NNE,23,0.0,0.4,94,0.00,,,0.01,WUHU216HW,2013-01-11 19:05:00,
2013-01-11 11:10:00,34.9,33.6,29.94,WSW,248,0.0,0.7,95,0.00,,,0.01,WUHU216HW,2013-01-11 19:10:00,
2013-01-11 11:15:00,34.9,33.6,29.94,NNE,23,0.4,0.7,95,0.00,,,0.01,WUHU216HW,2013-01-11 19:15:00,
2013-01-11 11:20:00,35.1,33.8,29.94,NNE,23,0.0,0.4,95,0.00,,,0.01,WUHU216HW,2013-01-11 19:20:00,
2013-01-11 11:25:00,35.3,33.9,29.94,North,0,0.0,0.4,95,0.00,,,0.01,WUHU216HW,2013-01-11 19:25:00,
2013-01-11 11:30:00,35.5,34.1,29.94,North,0,0.2,0.7,95,0.00,,,0.01,WUHU216HW,2013-01-11 19:30:00,
2013-01-11 11:35:00,35.6,34.3,29.94,NNE,23,0.0,0.7,95,0.00,,,0.01,WUHU216HW,2013-01-11 19:35:00,
2013-01-11 11:40:00,35.8,34.5,29.94,WSW,248,0.0,0.4,95,0.00,,,0.01,WUHU216HW,2013-01-11 19:40:00,
2013-01-11 11:45:00,35.3,33.7,29.94,SW,225,0.0,0.4,94,0.00,,,0.01,WUHU216HW,2013-01-11 19:45:00,
2013-01-11 11:50:00,35.3,33.7,29.94,SSW,203,0.0,0.4,94,0.00,,,0.01,WUHU216HW,2013-01-11 19:50:00,
2013-01-11 11:55:00,35.5,33.8,29.94,SW,225,0.7,1.3,94,0.00,,,0.01,WUHU216HW,2013-01-11 19:55:00,
2013-01-11 12:00:00,36.0,34.4,29.94,WSW,248,0.0,1.3,94,0.00,,,0.01,WUHU216HW,2013-01-11 20:00:00,
2013-01-11 12:05:00,35.6,34.0,29.94,WSW,248,0.2,1.1,94,0.00,,,0.01,WUHU216HW,2013-01-11 20:05:00,
2013-01-11 12:10:00,35.6,34.0,29.93,NNE,23,0.2,1.1,94,0.00,,,0.01,WUHU216HW,2013-01-11 20:10:00,
2013-01-11 12:15:00,36.0,34.4,29.93,NNE,23,0.0,0.4,94,0.00,,,0.01,WUHU216HW,2013-01-11 20:15:00,
2013-01-11 12:20:00,36.2,34.6,29.93,SW,225,0.7,0.7,94,0.00,,,0.01,WUHU216HW,2013-01-11 20:20:00,
2013-01-11 12:25:00,36.4,34.7,29.93,WSW,248,0.0,0.7,94,0.00,,,0.01,WUHU216HW,2013-01-11 20:25:00,
2013-01-11 12:30:00,36.7,35.1,29.93,WSW,248,0.7,1.1,94,0.00,,,0.01,WUHU216HW,2013-01-11 20:30:00,
2013-01-11 12:35:00,36.5,34.9,29.93,North,0,0.4,1.1,94,0.00,,,0.01,WUHU216HW,2013-01-11 20:35:00,
2013-01-11 12:40:00,36.9,35.3,29.93,NNE,23,0.4,1.1,94,0.00,,,0.01,WUHU216HW,2013-01-11 20:40:00,
2013-01-11 12:45:00,37.4,35.6,29.93,ENE,68,0.4,1.1,93,0.00,,,0.01,WUHU216HW,2013-01-11 20:45:00,
2013-01-11 12:50:00,37.6,35.7,29.93,ENE,68,0.2,1.1,93,0.00,,,0.01,WUHU216HW,2013-01-11 20:50:00,
2013-01-11 12:55:00,37.8,35.9,29.93,ENE,68,0.0,0.4,93,0.00,,,0.01,WUHU216HW,2013-01-11 20:55:00,
2013-01-11 13:00:00,37.8,35.6,29.94,ENE,68,0.0,0.4,92,0.00,,,0.01,WUHU216HW,2013-01-11 21:00:00,
2013-01-11 13:05:00,37.8,35.6,29.94,West,270,0.2,0.2,92,0.00,,,0.01,WUHU216HW,2013-01-11 21:05:00,
2013-01-11 13:10:00,37.8,35.6,29.94,NNW,338,0.0,1.3,92,0.00,,,0.01,WUHU216HW,2013-01-11 21:10:00,
2013-01-11 13:15:00,38.2,36.0,29.94,WNW,293,0.0,1.6,92,0.00,,,0.01,WUHU216HW,2013-01-11 21:15:00,
2013-01-11 13:20:00,38.2,35.7,29.94,West,270,2.0,2.5,91,0.00,,,0.01,WUHU216HW,2013-01-11 21:20:00,
2013-01-11 13:25:00,38.2,35.5,29.94,North,0,0.4,2.5,90,0.00,,,0.01,WUHU216HW,2013-01-11 21:25:00,
2013-01-11 13:30:00,38.5,35.8,29.94,North,0,0.0,2.5,90,0.00,,,0.01,WUHU216HW,2013-01-11 21:30:00,
2013-01-11 13:35:00,38.5,35.8,29.94,ENE,68,0.0,1.1,90,0.00,,,0.01,WUHU216HW,2013-01-11 21:35:00,
2013-01-11 13:40:00,38.9,36.2,29.94,NE,45,0.9,1.1,90,0.00,,,0.01,WUHU216HW,2013-01-11 21:40:00,
2013-01-11 13:45:00,39.1,36.6,29.94,NE,45,0.4,1.3,91,0.00,,,0.01,WUHU216HW,2013-01-11 21:45:00,
2013-01-11 13:50:00,39.1,36.6,29.94,NW,315,0.0,1.6,91,0.00,,,0.01,WUHU216HW,2013-01-11 21:50:00,
2013-01-11 13:55:00,39.2,36.5,29.94,North,0,0.0,1.6,90,0.00,,,0.01,WUHU216HW,2013-01-11 21:55:00,
2013-01-11 14:00:00,39.6,36.6,29.94,West,270,0.0,0.4,89,0.00,,,0.01,WUHU216HW,2013-01-11 22:00:00,
2013-01-11 14:05:00,39.8,36.8,29.94,NE,45,1.1,1.1,89,0.00,,,0.01,WUHU216HW,2013-01-11 22:05:00,
2013-01-11 14:10:00,40.0,36.6,29.94,NE,45,1.3,1.6,88,0.00,,,0.01,WUHU216HW,2013-01-11 22:10:00,
2013-01-11 14:15:00,40.1,36.5,29.94,NE,45,1.1,1.8,87,0.00,,,0.01,WUHU216HW,2013-01-11 22:15:00,
2013-01-11 14:20:00,40.3,36.7,29.94,ENE,68,0.4,1.8,87,0.00,,,0.01,WUHU216HW,2013-01-11 22:20:00,
2013-01-11 14:25:00,40.3,36.5,29.95,ENE,68,0.7,1.8,86,0.00,,,0.01,WUHU216HW,2013-01-11 22:25:00,
2013-01-11 14:30:00,40.5,36.6,29.95,ENE,68,0.4,1.6,86,0.00,,,0.01,WUHU216HW,2013-01-11 22:30:00,
2013-01-11 14:35:00,40.3,36.1,29.95,NE,45,1.1,1.6,85,0.00,,,0.01,WUHU216HW,2013-01-11 22:35:00,
2013-01-11 14:40:00,40.3,36.1,29.95,NE,45,0.7,1.1,85,0.00,,,0.01,WUHU216HW,2013-01-11 22:40:00,
2013-01-11 14:45:00,40.3,35.8,29.95,NE,45,0.0,1.1,84,0.00,,,0.01,WUHU216HW,2013-01-11 22:45:00,
2013-01-11 14:50:00,40.3,35.8,29.95,NE,45,0.2,1.1,84,0.00,,,0.01,WUHU216HW,2013-01-11 22:50:00,
2013-01-11 14:55:00,40.3,35.6,29.95,SE,135,0.4,0.9,83,0.00,,,0.01,WUHU216HW,2013-01-11 22:55:00,
2013-01-11 15:00:00,40.1,35.4,29.95,ENE,68,0.0,0.9,83,0.00,,,0.01,WUHU216HW,2013-01-11 23:00:00,
2013-01-11 15:05:00,40.1,35.4,29.96,ENE,68,0.0,0.7,83,0.00,,,0.01,WUHU216HW,2013-01-11 23:05:00,
2013-01-11 15:10:00,40.1,35.1,29.96,NE,45,0.0,0.4,82,0.00,,,0.01,WUHU216HW,2013-01-11 23:10:00,
2013-01-11 15:15:00,40.0,34.3,29.96,SSE,158,0.2,0.4,80,0.00,,,0.01,WUHU216HW,2013-01-11 23:15:00,
2013-01-11 15:20:00,39.8,34.1,29.96,ESE,113,0.2,0.4,80,0.00,,,0.01,WUHU216HW,2013-01-11 23:20:00,
2013-01-11 15:25:00,39.8,34.1,29.96,SSW,203,0.0,0.9,80,0.00,,,0.01,WUHU216HW,2013-01-11 23:25:00,
2013-01-11 15:30:00,39.6,34.0,29.96,ENE,68,0.0,0.9,80,0.00,,,0.01,WUHU216HW,2013-01-11 23:30:00,
2013-01-11 15:35:00,39.6,34.0,29.96,ENE,68,0.0,0.4,80,0.00,,,0.01,WUHU216HW,2013-01-11 23:35:00,
2013-01-11 15:40:00,39.4,33.9,29.96,ENE,68,0.0,0.9,80,0.00,,,0.01,WUHU216HW,2013-01-11 23:40:00,
2013-01-11 15:45:00,39.2,33.7,29.96,ENE,68,0.0,0.9,80,0.00,,,0.01,WUHU216HW,2013-01-11 23:45:00,
2013-01-11 15:50:00,39.2,33.7,29.96,East,90,0.0,0.0,80,0.00,,,0.01,WUHU216HW,2013-01-11 23:50:00,
2013-01-11 15:55:00,39.1,33.5,29.96,East,90,0.0,0.0,80,0.00,,,0.01,WUHU216HW,2013-01-11 23:55:00,
2013-01-11 16:00:00,38.7,33.1,29.96,East,90,0.0,0.0,80,0.00,,,0.01,WUHU216HW,2013-01-12 00:00:00,
2013-01-11 16:05:00,38.5,32.9,29.96,East,90,0.0,0.0,80,0.00,,,0.01,WUHU216HW,2013-01-12 00:05:00,
2013-01-11 16:10:00,38.2,32.6,29.96,East,90,0.0,0.0,80,0.00,,,0.01,WUHU216HW,2013-01-12 00:10:00,
2013-01-11 16:15:00,38.0,32.4,29.96,East,90,0.0,0.0,80,0.00,,,0.01,WUHU216HW,2013-01-12 00:15:00,
2013-01-11 16:20:00,37.8,32.2,29.97,East,90,0.0,0.0,80,0.00,,,0.01,WUHU216HW,2013-01-12 00:20:00,
2013-01-11 16:25:00,37.8,32.2,29.96,East,90,0.0,0.0,80,0.00,,,0.01,WUHU216HW,2013-01-12 00:25:00,
2013-01-11 16:30:00,37.8,32.2,29.96,East,90,0.0,0.0,80,0.00,,,0.01,WUHU216HW,2013-01-12 00:30:00,
2013-01-11 16:35:00,37.4,31.9,29.96,East,90,0.0,0.0,80,0.00,,,0.01,WUHU216HW,2013-01-12 00:35:00,
2013-01-11 16:40:00,37.1,31.5,29.96,East,90,0.0,0.0,80,0.00,,,0.01,WUHU216HW,2013-01-12 00:40:00,
2013-01-11 16:45:00,36.9,31.6,29.97,East,90,0.0,0.0,81,0.00,,,0.01,WUHU216HW,2013-01-12 00:45:00,
2013-01-11 16:50:00,36.5,31.2,29.96,East,90,0.0,0.0,81,0.00,,,0.01,WUHU216HW,2013-01-12 00:50:00,
2013-01-11 16:55:00,36.2,30.9,29.96,East,90,0.0,0.0,81,0.00,,,0.01,WUHU216HW,2013-01-12 00:55:00,
2013-01-11 17:00:00,35.8,30.8,29.96,East,90,0.0,0.0,82,0.00,,,0.01,WUHU216HW,2013-01-12 01:00:00,
2013-01-11 17:03:00,35.6,30.6,29.97,East,90,0.0,0.0,82,0.00,,,0.01,WUHU216HW,2013-01-12 01:03:00,
2013-01-11 17:19:00,35.5,30.4,29.97,East,90,0.0,0.0,82,0.00,,,0.01,WUHU216HW,2013-01-12 01:19:00,
2013-01-11 17:20:00,35.5,30.4,29.97,East,90,0.0,0.0,82,0.00,,,0.01,WUHU216HW,2013-01-12 01:20:00,
2013-01-11 17:25:00,35.5,30.4,29.97,East,90,0.0,0.0,82,0.00,,,0.01,WUHU216HW,2013-01-12 01:25:00,
2013-01-11 18:00:00,33.5,29.3,29.96,East,90,0.0,0.0,85,0.00,,,0.01,WUHU216HW,2013-01-12 02:00:00,
2013-01-11 18:05:00,33.5,29.3,29.96,East,90,0.0,0.0,85,0.00,,,0.01,WUHU216HW,2013-01-12 02:05:00,
2013-01-11 18:10:00,33.5,29.3,29.97,East,90,0.0,0.0,85,0.00,,,0.01,WUHU216HW,2013-01-12 02:10:00,
2013-01-11 18:15:00,33.5,29.7,29.97,East,90,0.0,0.0,86,0.00,,,0.01,WUHU216HW,2013-01-12 02:15:00,
2013-01-11 18:20:00,33.5,29.7,29.97,East,90,0.0,0.0,86,0.00,,,0.01,WUHU216HW,2013-01-12 02:20:00,
2013-01-11 18:25:00,33.3,29.5,29.97,East,90,0.0,0.0,86,0.00,,,0.01,WUHU216HW,2013-01-12 02:25:00,
2013-01-11 18:30:00,33.3,29.5,29.97,East,90,0.0,0.0,86,0.00,,,0.01,WUHU216HW,2013-01-12 02:30:00,
2013-01-11 18:35:00,33.3,29.5,29.97,East,90,0.0,0.0,86,0.00,,,0.01,WUHU216HW,2013-01-12 02:35:00,
2013-01-11 18:40:00,33.1,29.3,29.97,East,90,0.0,0.0,86,0.00,,,0.01,WUHU216HW,2013-01-12 02:40:00,
2013-01-11 18:45:00,33.1,29.3,29.97,East,90,0.0,0.0,86,0.00,,,0.01,WUHU216HW,2013-01-12 02:45:00,
2013-01-11 18:50:00,32.9,29.2,29.97,East,90,0.0,0.0,86,0.00,,,0.01,WUHU216HW,2013-01-12 02:50:00,
2013-01-11 18:55:00,32.8,29.0,29.98,East,90,0.0,0.2,86,0.00,,,0.01,WUHU216HW,2013-01-12 02:55:00,
2013-01-11 19:00:00,32.4,28.7,29.98,East,90,0.0,0.2,86,0.00,,,0.01,WUHU216HW,2013-01-12 03:00:00,
2013-01-11 19:05:00,32.2,28.5,29.98,East,90,0.0,0.0,86,0.00,,,0.01,WUHU216HW,2013-01-12 03:05:00,
2013-01-11 19:10:00,32.0,28.6,29.98,East,90,0.0,0.0,87,0.00,,,0.01,WUHU216HW,2013-01-12 03:10:00,
2013-01-11 19:15:00,32.0,28.6,29.98,East,90,0.0,0.0,87,0.00,,,0.01,WUHU216HW,2013-01-12 03:15:00,
2013-01-11 19:20:00,32.0,28.6,29.98,East,90,0.0,0.4,87,0.00,,,0.01,WUHU216HW,2013-01-12 03:20:00,
2013-01-11 19:25:00,31.7,28.3,29.98,East,90,0.0,0.4,87,0.00,,,0.01,WUHU216HW,2013-01-12 03:25:00,
2013-01-11 19:30:00,31.7,28.6,29.98,East,90,0.0,0.0,88,0.00,,,0.01,WUHU216HW,2013-01-12 03:30:00,
2013-01-11 19:35:00,31.9,28.8,29.98,East,90,0.0,0.0,88,0.00,,,0.01,WUHU216HW,2013-01-12 03:35:00,
2013-01-11 19:40:00,31.9,28.8,29.98,East,90,0.0,0.0,88,0.00,,,0.01,WUHU216HW,2013-01-12 03:40:00,
2013-01-11 19:45:00,31.7,28.6,29.98,East,90,0.0,0.0,88,0.00,,,0.01,WUHU216HW,2013-01-12 03:45:00,
2013-01-11 19:50:00,31.3,28.3,29.98,East,90,0.0,0.0,88,0.00,,,0.01,WUHU216HW,2013-01-12 03:50:00,
2013-01-11 19:55:00,31.3,28.3,29.98,East,90,0.0,0.0,88,0.00,,,0.01,WUHU216HW,2013-01-12 03:55:00,
2013-01-11 20:00:00,31.3,28.5,29.98,East,90,0.0,0.0,89,0.00,,,0.01,WUHU216HW,2013-01-12 04:00:00,
2013-01-11 20:05:00,31.3,28.5,29.98,East,90,0.0,0.0,89,0.00,,,0.01,WUHU216HW,2013-01-12 04:05:00,
2013-01-11 20:10:00,31.3,28.5,29.98,East,90,0.0,0.0,89,0.00,,,0.01,WUHU216HW,2013-01-12 04:10:00,
2013-01-11 20:15:00,31.1,28.4,29.98,East,90,0.0,0.0,89,0.00,,,0.01,WUHU216HW,2013-01-12 04:15:00,
2013-01-11 20:20:00,31.0,28.2,29.98,East,90,0.0,0.0,89,0.00,,,0.01,WUHU216HW,2013-01-12 04:20:00,
2013-01-11 20:25:00,30.8,28.0,29.98,East,90,0.0,0.0,89,0.00,,,0.01,WUHU216HW,2013-01-12 04:25:00,
2013-01-11 20:30:00,30.6,27.8,29.97,East,90,0.0,0.0,89,0.00,,,0.01,WUHU216HW,2013-01-12 04:30:00,
2013-01-11 20:35:00,30.4,27.6,29.97,East,90,0.0,0.0,89,0.00,,,0.01,WUHU216HW,2013-01-12 04:35:00,
2013-01-11 20:40:00,30.2,27.5,29.97,East,90,0.0,0.0,89,0.00,,,0.01,WUHU216HW,2013-01-12 04:40:00,
2013-01-11 20:45:00,30.2,27.2,29.98,East,90,0.0,0.0,88,0.00,,,0.01,WUHU216HW,2013-01-12 04:45:00,
2013-01-11 20:50:00,30.1,27.0,29.98,East,90,0.0,0.0,88,0.00,,,0.01,WUHU216HW,2013-01-12 04:50:00,
2013-01-11 20:55:00,30.1,27.3,29.98,East,90,0.0,0.0,89,0.00,,,0.01,WUHU216HW,2013-01-12 04:55:00,
2013-01-11 21:00:00,29.9,27.1,29.98,East,90,0.0,0.0,89,0.00,,,0.01,WUHU216HW,2013-01-12 05:00:00,
2013-01-11 21:01:00,29.9,27.1,29.98,East,90,0.0,0.0,89,0.00,,,0.01,WUHU216HW,2013-01-12 05:01:00,
2013-01-11 21:03:00,29.9,27.1,29.98,East,90,0.0,0.0,89,0.00,,,0.01,WUHU216HW,2013-01-12 05:03:00,
2013-01-11 21:08:00,29.9,27.1,29.98,East,90,0.0,0.0,89,0.00,,,0.01,WUHU216HW,2013-01-12 05:08:00,
2013-01-11 21:13:00,30.2,27.5,29.98,East,90,0.0,0.0,89,0.00,,,0.01,WUHU216HW,2013-01-12 05:13:00,
2013-01-11 21:18:00,30.2,27.7,29.98,East,90,0.0,0.0,90,0.00,,,0.01,WUHU216HW,2013-01-12 05:18:00,
2013-01-11 21:23:00,30.2,27.7,29.98,East,90,0.0,0.0,90,0.00,,,0.01,WUHU216HW,2013-01-12 05:23:00,
2013-01-11 21:28:00,30.1,27.3,29.98,East,90,0.0,0.0,89,0.00,,,0.01,WUHU216HW,2013-01-12 05:28:00,
2013-01-11 21:33:00,29.9,27.1,29.98,East,90,0.0,0.0,89,0.00,,,0.01,WUHU216HW,2013-01-12 05:33:00,
2013-01-11 21:38:00,29.9,27.1,29.98,East,90,0.0,0.0,89,0.00,,,0.01,WUHU216HW,2013-01-12 05:38:00,
2013-01-11 21:43:00,29.7,26.9,29.99,East,90,0.0,0.0,89,0.00,,,0.01,WUHU216HW,2013-01-12 05:43:00,
2013-01-11 21:48:00,29.5,26.7,29.98,East,90,0.0,0.0,89,0.00,,,0.01,WUHU216HW,2013-01-12 05:48:00,
2013-01-11 21:53:00,29.3,26.8,29.99,East,90,0.0,0.0,90,0.00,,,0.01,WUHU216HW,2013-01-12 05:53:00,
2013-01-11 21:58:00,29.3,26.8,29.99,East,90,0.0,0.0,90,0.00,,,0.01,WUHU216HW,2013-01-12 05:58:00,
2013-01-11 22:03:00,29.3,26.8,29.98,East,90,0.0,0.0,90,0.00,,,0.01,WUHU216HW,2013-01-12 06:03:00,
2013-01-11 22:08:00,29.2,26.6,29.98,East,90,0.0,0.0,90,0.00,,,0.01,WUHU216HW,2013-01-12 06:08:00,
2013-01-11 22:13:00,29.2,26.6,29.98,East,90,0.0,0.0,90,0.00,,,0.01,WUHU216HW,2013-01-12 06:13:00,
2013-01-11 22:18:00,29.2,26.6,29.99,East,90,0.0,0.0,90,0.00,,,0.01,WUHU216HW,2013-01-12 06:18:00,
2013-01-11 22:23:00,29.0,26.5,29.98,East,90,0.0,0.0,90,0.00,,,0.01,WUHU216HW,2013-01-12 06:23:00,
2013-01-11 22:28:00,29.0,26.5,29.99,East,90,0.0,0.0,90,0.00,,,0.01,WUHU216HW,2013-01-12 06:28:00,
2013-01-11 22:33:00,29.0,26.7,29.98,East,90,0.0,0.0,91,0.00,,,0.01,WUHU216HW,2013-01-12 06:33:00,
2013-01-11 22:38:00,29.0,26.7,29.98,East,90,0.0,0.0,91,0.00,,,0.01,WUHU216HW,2013-01-12 06:38:00,
2013-01-11 22:43:00,29.0,26.7,29.98,East,90,0.0,0.0,91,0.00,,,0.01,WUHU216HW,2013-01-12 06:43:00,
2013-01-11 22:48:00,29.0,26.7,29.98,East,90,0.0,0.0,91,0.00,,,0.01,WUHU216HW,2013-01-12 06:48:00,
2013-01-11 22:53:00,29.2,26.9,29.98,East,90,0.0,0.0,91,0.00,,,0.01,WUHU216HW,2013-01-12 06:53:00,
2013-01-11 22:58:00,29.2,26.9,29.98,East,90,0.0,0.0,91,0.00,,,0.01,WUHU216HW,2013-01-12 06:58:00,
2013-01-11 23:03:00,29.2,26.9,29.98,East,90,0.0,0.0,91,0.00,,,0.01,WUHU216HW,2013-01-12 07:03:00,
2013-01-11 23:08:00,29.0,26.7,29.98,East,90,0.0,0.0,91,0.00,,,0.01,WUHU216HW,2013-01-12 07:08:00,
2013-01-11 23:13:00,28.8,26.6,29.98,East,90,0.0,0.0,91,0.00,,,0.01,WUHU216HW,2013-01-12 07:13:00,
2013-01-11 23:18:00,28.8,26.6,29.98,East,90,0.0,0.0,91,0.00,,,0.01,WUHU216HW,2013-01-12 07:18:00,
2013-01-11 23:20:00,28.6,26.4,29.97,East,90,0.0,0.0,91,0.00,,,0.01,WUHU216HW,2013-01-12 07:20:00,